UAL45A KSFO-KLAX

Flight info

Callsign UAL45A
Flight time 0h 57m
Altitude 33000
Route WESLA5 SUSEY EBAYE BURGL IRNMN2
Aircraft A20N/M-SDE2E3FGHIRWXY/LB1

Departure

Time 2026-05-07 22:51
Airport San Francisco International Airport (KSFO)

Arrival

Time 2026-05-07 23:48
Airport Los Angeles International Airport (KLAX)
Time Latitude Longitude Altitude Speed Heading
2026-05-07 22:22 37.62071 -122.38776 31 ft 0 kts 208°
2026-05-07 22:35 37.62078 -122.38770 32 ft 2 kts 208°
2026-05-07 22:35 37.62092 -122.38761 32 ft 2 kts 208°
2026-05-07 22:35 37.62103 -122.38754 32 ft 2 kts 209°
2026-05-07 22:36 37.62117 -122.38747 32 ft 2 kts 186°
2026-05-07 22:36 37.62132 -122.38748 32 ft 2 kts 169°
2026-05-07 22:36 37.62146 -122.38754 32 ft 2 kts 150°
2026-05-07 22:36 37.62158 -122.38766 32 ft 2 kts 132°
2026-05-07 22:37 37.62165 -122.38778 32 ft 1 kts 117°
2026-05-07 22:37 37.62167 -122.38783 32 ft 0 kts 154°
2026-05-07 22:37 37.62177 -122.38783 32 ft 2 kts 184°
2026-05-07 22:37 37.62192 -122.38785 31 ft 2 kts 173°
2026-05-07 22:38 37.62206 -122.38786 31 ft 1 kts 176°
2026-05-07 22:38 37.62211 -122.38786 31 ft 0 kts 150°
2026-05-07 22:38 37.62214 -122.38790 31 ft 1 kts 115°
2026-05-07 22:38 37.62215 -122.38794 31 ft 0 kts 117°
2026-05-07 22:41 37.62214 -122.38790 31 ft 3 kts 117°
2026-05-07 22:42 37.62174 -122.38699 31 ft 16 kts 118°
2026-05-07 22:42 37.62114 -122.38556 32 ft 18 kts 118°
2026-05-07 22:42 37.62051 -122.38407 31 ft 19 kts 118°
2026-05-07 22:42 37.61985 -122.38248 32 ft 20 kts 118°
2026-05-07 22:43 37.61918 -122.38088 32 ft 20 kts 118°
2026-05-07 22:43 37.61851 -122.37925 30 ft 21 kts 117°
2026-05-07 22:43 37.61791 -122.37759 27 ft 19 kts 107°
2026-05-07 22:43 37.61746 -122.37590 22 ft 21 kts 114°
2026-05-07 22:44 37.61674 -122.37410 17 ft 24 kts 117°
2026-05-07 22:44 37.61599 -122.37227 15 ft 22 kts 118°
2026-05-07 22:44 37.61527 -122.37057 12 ft 21 kts 117°
2026-05-07 22:44 37.61450 -122.36898 12 ft 21 kts 129°
2026-05-07 22:45 37.61357 -122.36759 12 ft 20 kts 120°
2026-05-07 22:45 37.61290 -122.36598 12 ft 20 kts 118°
2026-05-07 22:45 37.61221 -122.36434 10 ft 21 kts 118°
2026-05-07 22:45 37.61149 -122.36264 9 ft 22 kts 117°
2026-05-07 22:46 37.61100 -122.36144 9 ft 4 kts 112°
2026-05-07 22:46 37.61084 -122.36105 9 ft 5 kts 122°
2026-05-07 22:46 37.61060 -122.36053 9 ft 7 kts 115°
2026-05-07 22:46 37.61050 -122.36000 9 ft 0 kts 93°
2026-05-07 22:47 37.61050 -122.35999 9 ft 0 kts 93°
2026-05-07 22:47 37.61050 -122.35997 9 ft 0 kts 93°
2026-05-07 22:47 37.61051 -122.35980 9 ft 2 kts 82°
2026-05-07 22:47 37.61061 -122.35945 9 ft 5 kts 54°
2026-05-07 22:48 37.61090 -122.35911 9 ft 6 kts 33°
2026-05-07 22:48 37.61132 -122.35885 9 ft 7 kts 14°
2026-05-07 22:48 37.61182 -122.35889 9 ft 7 kts 338°
2026-05-07 22:48 37.61219 -122.35941 9 ft 8 kts 306°
2026-05-07 22:49 37.61235 -122.35975 9 ft 0 kts 295°
2026-05-07 22:50 37.61239 -122.35985 9 ft 4 kts 295°
2026-05-07 22:50 37.61365 -122.36292 11 ft 79 kts 298°
2026-05-07 22:50 37.61737 -122.37179 17 ft 145 kts 298°
2026-05-07 22:51 37.62242 -122.38374 498 ft 160 kts 298°
2026-05-07 22:51 37.62753 -122.39565 1354 ft 157 kts 298°
2026-05-07 22:51 37.63266 -122.40755 2071 ft 160 kts 300°
2026-05-07 22:51 37.63830 -122.42030 2579 ft 176 kts 300°
2026-05-07 22:52 37.64453 -122.43437 3095 ft 193 kts 299°
2026-05-07 22:52 37.65140 -122.45005 3541 ft 217 kts 299°
2026-05-07 22:52 37.65897 -122.46739 4154 ft 234 kts 299°
2026-05-07 22:52 37.66660 -122.48562 4952 ft 243 kts 292°
2026-05-07 22:53 37.66890 -122.50712 5567 ft 259 kts 260°
2026-05-07 22:53 37.66493 -122.52142 6084 ft 266 kts 240°
2026-05-07 22:53 37.65713 -122.53336 6704 ft 270 kts 221°
2026-05-07 22:53 37.64625 -122.54140 7333 ft 274 kts 200°
2026-05-07 22:54 37.60913 -122.53469 9070 ft 287 kts 159°
2026-05-07 22:54 37.59049 -122.52494 9869 ft 293 kts 160°
2026-05-07 22:54 37.57134 -122.51532 10614 ft 301 kts 160°
2026-05-07 22:54 37.55116 -122.50529 11088 ft 319 kts 160°
2026-05-07 22:55 37.53015 -122.49487 11652 ft 331 kts 160°
2026-05-07 22:55 37.50853 -122.48399 12420 ft 336 kts 157°
2026-05-07 22:55 37.48826 -122.46938 13187 ft 341 kts 145°
2026-05-07 22:55 37.47036 -122.44948 13966 ft 344 kts 135°
2026-05-07 22:56 37.45396 -122.42746 14715 ft 348 kts 133°
2026-05-07 22:56 37.43753 -122.40485 15445 ft 352 kts 133°
2026-05-07 22:56 37.42113 -122.38225 16154 ft 356 kts 133°
2026-05-07 22:56 37.40423 -122.35907 16841 ft 361 kts 133°
2026-05-07 22:57 37.38731 -122.33594 17518 ft 365 kts 133°
2026-05-07 22:57 37.36995 -122.31231 18184 ft 369 kts 132°
2026-05-07 22:57 37.35269 -122.28882 18837 ft 372 kts 132°
2026-05-07 22:57 37.33492 -122.26469 19507 ft 375 kts 132°
2026-05-07 22:58 37.31731 -122.24081 20160 ft 378 kts 132°
2026-05-07 22:58 37.29952 -122.21671 20813 ft 380 kts 132°
2026-05-07 22:58 37.28139 -122.19218 21451 ft 383 kts 132°
2026-05-07 22:58 37.26326 -122.16767 22061 ft 386 kts 132°
2026-05-07 22:59 37.24495 -122.14294 22655 ft 390 kts 132°
2026-05-07 22:59 37.22637 -122.11785 23235 ft 394 kts 133°
2026-05-07 22:59 37.20767 -122.09264 23814 ft 398 kts 133°
2026-05-07 22:59 37.18887 -122.06729 24399 ft 401 kts 133°
2026-05-07 23:00 37.16964 -122.04140 24978 ft 404 kts 133°
2026-05-07 23:00 37.15686 -122.02422 25343 ft 406 kts 133°
2026-05-07 23:00 37.13751 -121.99821 25875 ft 409 kts 133°
2026-05-07 23:00 37.12458 -121.98082 26224 ft 411 kts 133°
2026-05-07 23:01 37.11160 -121.96339 26570 ft 413 kts 133°
2026-05-07 23:01 37.09163 -121.93659 27076 ft 417 kts 133°
2026-05-07 23:01 37.07838 -121.91883 27396 ft 419 kts 133°
2026-05-07 23:01 37.07177 -121.90997 27554 ft 420 kts 133°
2026-05-07 23:02 37.06508 -121.90099 27714 ft 421 kts 133°
2026-05-07 23:02 37.05173 -121.88309 28026 ft 422 kts 133°
2026-05-07 23:02 37.04505 -121.87416 28175 ft 423 kts 133°
2026-05-07 23:02 37.03809 -121.86484 28327 ft 424 kts 133°
2026-05-07 23:03 37.01791 -121.83784 28744 ft 427 kts 133°
2026-05-07 23:03 36.99048 -121.80115 29271 ft 432 kts 133°
2026-05-07 23:03 36.88581 -121.66172 31222 ft 439 kts 133°
2026-05-07 23:03 36.86459 -121.63372 31658 ft 439 kts 133°
2026-05-07 23:04 36.84360 -121.60600 32012 ft 439 kts 133°
2026-05-07 23:04 36.82247 -121.57806 32330 ft 441 kts 132°
2026-05-07 23:04 36.80133 -121.55006 32637 ft 442 kts 132°
2026-05-07 23:04 36.77986 -121.52165 32954 ft 443 kts 132°
2026-05-07 23:05 36.75871 -121.49365 33079 ft 445 kts 132°
2026-05-07 23:05 36.71644 -121.43773 33083 ft 444 kts 132°
2026-05-07 23:06 36.67411 -121.38184 33080 ft 443 kts 132°
2026-05-07 23:06 36.63193 -121.32614 33071 ft 442 kts 133°
2026-05-07 23:07 36.58979 -121.27039 33077 ft 441 kts 133°
2026-05-07 23:07 36.54751 -121.21471 33084 ft 441 kts 133°
2026-05-07 23:08 36.50547 -121.15947 33091 ft 441 kts 133°
2026-05-07 23:08 36.46333 -121.10425 33092 ft 442 kts 133°
2026-05-07 23:09 36.42148 -121.04822 33091 ft 442 kts 130°
2026-05-07 23:09 36.38127 -120.99055 33080 ft 441 kts 130°
2026-05-07 23:10 36.34127 -120.93314 33075 ft 441 kts 130°
2026-05-07 23:10 36.30104 -120.87543 33072 ft 441 kts 130°
2026-05-07 23:11 36.26088 -120.81791 33078 ft 441 kts 130°
2026-05-07 23:11 36.22077 -120.76055 33085 ft 442 kts 130°
2026-05-07 23:12 36.18036 -120.70286 33085 ft 442 kts 130°
2026-05-07 23:12 36.13982 -120.64511 33082 ft 442 kts 130°
2026-05-07 23:13 36.09959 -120.58787 33081 ft 443 kts 130°
2026-05-07 23:13 36.05904 -120.53027 33089 ft 443 kts 130°
2026-05-07 23:14 36.01848 -120.47279 33098 ft 443 kts 129°
2026-05-07 23:14 35.97808 -120.41555 33100 ft 442 kts 129°
2026-05-07 23:15 35.93760 -120.35829 33078 ft 442 kts 129°
2026-05-07 23:15 35.89585 -120.30198 33066 ft 443 kts 134°
2026-05-07 23:16 35.84921 -120.25153 33052 ft 443 kts 141°
2026-05-07 23:16 35.79800 -120.20790 33056 ft 444 kts 147°
2026-05-07 23:17 35.74549 -120.16827 33049 ft 443 kts 147°
2026-05-07 23:17 35.69276 -120.12846 33051 ft 443 kts 147°
2026-05-07 23:18 35.64120 -120.08729 33058 ft 443 kts 143°
2026-05-07 23:18 35.59087 -120.04297 33063 ft 443 kts 143°
2026-05-07 23:19 35.54079 -119.99889 33069 ft 443 kts 143°
2026-05-07 23:19 35.49083 -119.95509 33079 ft 443 kts 143°
2026-05-07 23:20 35.44056 -119.91111 33062 ft 443 kts 143°
2026-05-07 23:20 35.41551 -119.88921 32793 ft 442 kts 143°
2026-05-07 23:20 35.39060 -119.86749 32530 ft 440 kts 143°
2026-05-07 23:20 35.36592 -119.84598 32273 ft 438 kts 143°
2026-05-07 23:21 35.34081 -119.82412 32009 ft 436 kts 143°
2026-05-07 23:21 35.31626 -119.80276 31747 ft 436 kts 143°
2026-05-07 23:21 35.29165 -119.78135 31491 ft 436 kts 143°
2026-05-07 23:21 35.26696 -119.75991 31233 ft 437 kts 143°
2026-05-07 23:22 35.24197 -119.73821 30974 ft 438 kts 143°
2026-05-07 23:22 35.21717 -119.71670 30714 ft 439 kts 143°
2026-05-07 23:22 35.19238 -119.69521 30461 ft 440 kts 143°
2026-05-07 23:22 35.16726 -119.67344 30195 ft 440 kts 143°
2026-05-07 23:23 35.14242 -119.65196 29938 ft 439 kts 143°
2026-05-07 23:23 35.11729 -119.63020 29680 ft 437 kts 143°
2026-05-07 23:23 35.09262 -119.60889 29407 ft 436 kts 142°
2026-05-07 23:23 35.06806 -119.58768 29140 ft 434 kts 142°
2026-05-07 23:24 35.04352 -119.56650 28846 ft 432 kts 143°
2026-05-07 23:24 35.01900 -119.54536 28475 ft 429 kts 142°
2026-05-07 23:24 34.99459 -119.52433 28060 ft 427 kts 142°
2026-05-07 23:24 34.97053 -119.50359 27629 ft 423 kts 142°
2026-05-07 23:25 34.94627 -119.48272 27186 ft 420 kts 142°
2026-05-07 23:25 34.92259 -119.46235 26753 ft 417 kts 142°
2026-05-07 23:25 34.89891 -119.44199 26311 ft 414 kts 142°
2026-05-07 23:25 34.87548 -119.42196 25873 ft 410 kts 143°
2026-05-07 23:26 34.85234 -119.40224 25435 ft 407 kts 143°
2026-05-07 23:26 34.82903 -119.38233 24999 ft 404 kts 142°
2026-05-07 23:26 34.80623 -119.36285 24570 ft 401 kts 142°
2026-05-07 23:26 34.78348 -119.34338 24139 ft 398 kts 143°
2026-05-07 23:27 34.73864 -119.30478 23276 ft 392 kts 143°
2026-05-07 23:27 34.71631 -119.28563 22841 ft 389 kts 143°
2026-05-07 23:27 34.69432 -119.26680 22411 ft 386 kts 143°
2026-05-07 23:28 34.67250 -119.24813 21975 ft 383 kts 143°
2026-05-07 23:28 34.65056 -119.22940 21534 ft 380 kts 143°
2026-05-07 23:28 34.62905 -119.21107 21131 ft 377 kts 143°
2026-05-07 23:28 34.60780 -119.19295 20785 ft 373 kts 143°
2026-05-07 23:29 34.58664 -119.17492 20424 ft 371 kts 143°
2026-05-07 23:29 34.56569 -119.15709 20073 ft 369 kts 143°
2026-05-07 23:29 34.54462 -119.13917 19668 ft 365 kts 143°
2026-05-07 23:29 34.52393 -119.12157 19146 ft 365 kts 143°
2026-05-07 23:30 34.50323 -119.10399 18695 ft 362 kts 143°
2026-05-07 23:30 34.48251 -119.08640 18266 ft 360 kts 143°
2026-05-07 23:30 34.46225 -119.06922 17839 ft 358 kts 143°
2026-05-07 23:30 34.44188 -119.05194 17415 ft 356 kts 143°
2026-05-07 23:31 34.42155 -119.03473 17012 ft 353 kts 143°
2026-05-07 23:31 34.40149 -119.01775 16692 ft 351 kts 143°
2026-05-07 23:31 34.38150 -119.00083 16232 ft 349 kts 143°
2026-05-07 23:31 34.36155 -118.98394 15767 ft 347 kts 143°
2026-05-07 23:32 34.34172 -118.96716 15275 ft 346 kts 143°
2026-05-07 23:32 34.32215 -118.95060 14886 ft 342 kts 142°
2026-05-07 23:32 34.30277 -118.93424 14468 ft 339 kts 143°
2026-05-07 23:32 34.28337 -118.91787 14049 ft 337 kts 142°
2026-05-07 23:33 34.26411 -118.90163 13612 ft 336 kts 142°
2026-05-07 23:33 34.24527 -118.88503 13141 ft 334 kts 140°
2026-05-07 23:33 34.22683 -118.86812 12724 ft 331 kts 140°
2026-05-07 23:33 34.20855 -118.85127 12272 ft 329 kts 140°
2026-05-07 23:34 34.19035 -118.83452 11821 ft 328 kts 140°
2026-05-07 23:34 34.17220 -118.81781 11332 ft 327 kts 140°
2026-05-07 23:34 34.15485 -118.80032 10898 ft 324 kts 136°
2026-05-07 23:34 34.13813 -118.78223 10453 ft 323 kts 136°
2026-05-07 23:35 34.12166 -118.76422 9983 ft 322 kts 136°
2026-05-07 23:35 34.10485 -118.74583 9553 ft 321 kts 136°
2026-05-07 23:35 34.08838 -118.72789 9136 ft 320 kts 136°
2026-05-07 23:35 34.07186 -118.70991 8702 ft 318 kts 137°
2026-05-07 23:36 34.05526 -118.69190 8263 ft 317 kts 137°
2026-05-07 23:36 34.03914 -118.67411 7852 ft 315 kts 133°
2026-05-07 23:36 34.02770 -118.65193 7371 ft 311 kts 104°
2026-05-07 23:36 34.02485 -118.62637 7004 ft 306 kts 93°
2026-05-07 23:37 34.02311 -118.60092 6544 ft 306 kts 94°
2026-05-07 23:37 34.02107 -118.57537 6132 ft 304 kts 95°
2026-05-07 23:37 34.01881 -118.55006 5963 ft 306 kts 95°
2026-05-07 23:37 34.01646 -118.52486 5834 ft 290 kts 95°
2026-05-07 23:38 34.01428 -118.50176 5703 ft 267 kts 95°
2026-05-07 23:38 34.01223 -118.47993 5579 ft 258 kts 95°
2026-05-07 23:38 34.01091 -118.45837 5452 ft 256 kts 85°
2026-05-07 23:38 34.01359 -118.43748 5322 ft 247 kts 77°
2026-05-07 23:39 34.01694 -118.41757 5193 ft 239 kts 76°
2026-05-07 23:39 34.02033 -118.39803 5073 ft 238 kts 76°
2026-05-07 23:39 34.02372 -118.37852 4953 ft 237 kts 76°
2026-05-07 23:39 34.02698 -118.35914 4838 ft 238 kts 78°
2026-05-07 23:40 34.02930 -118.33916 4709 ft 237 kts 82°
2026-05-07 23:40 34.03126 -118.31949 4585 ft 237 kts 82°
2026-05-07 23:40 34.03322 -118.29972 4464 ft 237 kts 81°
2026-05-07 23:40 34.03530 -118.27929 4357 ft 246 kts 81°
2026-05-07 23:41 34.03735 -118.25929 4224 ft 237 kts 83°
2026-05-07 23:41 34.03573 -118.23970 4077 ft 235 kts 113°
2026-05-07 23:41 34.02594 -118.22322 3996 ft 248 kts 136°
2026-05-07 23:41 34.01409 -118.20808 3863 ft 248 kts 128°
2026-05-07 23:42 34.00476 -118.19103 3720 ft 239 kts 118°
2026-05-07 23:42 33.99773 -118.17349 3589 ft 229 kts 113°
2026-05-07 23:42 33.99123 -118.15619 3452 ft 221 kts 124°
2026-05-07 23:42 33.98016 -118.14445 3309 ft 209 kts 161°
2026-05-07 23:43 33.96641 -118.14266 3171 ft 194 kts 199°
2026-05-07 23:43 33.95543 -118.15074 2952 ft 179 kts 233°
2026-05-07 23:43 33.94866 -118.16245 2682 ft 168 kts 246°
2026-05-07 23:43 33.94519 -118.17629 2617 ft 179 kts 270°
2026-05-07 23:44 33.94752 -118.19105 2596 ft 182 kts 289°
2026-05-07 23:44 33.95289 -118.20506 2581 ft 183 kts 299°
2026-05-07 23:44 33.96011 -118.21754 2574 ft 183 kts 307°
2026-05-07 23:44 33.96715 -118.23026 2528 ft 184 kts 289°
2026-05-07 23:45 33.96719 -118.24562 2573 ft 180 kts 251°
2026-05-07 23:45 33.96035 -118.25777 2235 ft 177 kts 236°
2026-05-07 23:45 33.95414 -118.27028 1858 ft 175 kts 236°
2026-05-07 23:45 33.94812 -118.28288 1555 ft 166 kts 246°
2026-05-07 23:46 33.94497 -118.29511 1518 ft 145 kts 260°
2026-05-07 23:46 33.94379 -118.30673 1310 ft 134 kts 264°
2026-05-07 23:46 33.94349 -118.31817 1000 ft 142 kts 268°
2026-05-07 23:46 33.94284 -118.32992 882 ft 135 kts 263°
2026-05-07 23:47 33.94180 -118.34091 783 ft 130 kts 262°
2026-05-07 23:47 33.94063 -118.35160 618 ft 129 kts 261°
2026-05-07 23:47 33.93949 -118.36234 450 ft 128 kts 262°
2026-05-07 23:47 33.93840 -118.37299 283 ft 128 kts 262°
2026-05-07 23:48 33.93732 -118.38357 135 ft 127 kts 262°
2026-05-07 23:48 33.93641 -118.39243 107 ft 66 kts 263°
2026-05-07 23:48 33.93607 -118.39562 110 ft 16 kts 263°
2026-05-07 23:48 33.93596 -118.39700 111 ft 16 kts 265°
2026-05-07 23:49 33.93616 -118.39822 113 ft 14 kts 284°
2026-05-07 23:49 33.93638 -118.39912 115 ft 5 kts 292°
2026-05-07 23:49 33.93639 -118.39915 115 ft 0 kts 293°
2026-05-07 23:50 33.93651 -118.39947 116 ft 9 kts 294°
2026-05-07 23:50 33.93664 -118.40018 117 ft 8 kts 272°
2026-05-07 23:50 33.93662 -118.40083 118 ft 7 kts 265°
2026-05-07 23:50 33.93656 -118.40142 119 ft 6 kts 263°
2026-05-07 23:51 33.93649 -118.40215 120 ft 11 kts 264°
2026-05-07 23:51 33.93648 -118.40316 120 ft 12 kts 282°
2026-05-07 23:51 33.93659 -118.40356 120 ft 10 kts 293°
2026-05-07 23:51 33.93747 -118.40435 122 ft 17 kts 342°
2026-05-07 23:52 33.93805 -118.40444 122 ft 0 kts 343°
2026-05-07 23:52 33.93830 -118.40479 123 ft 5 kts 271°
2026-05-07 23:52 33.93830 -118.40483 123 ft 0 kts 261°
2026-05-07 23:53 33.93826 -118.40531 124 ft 6 kts 266°
2026-05-07 23:53 33.93816 -118.40710 126 ft 15 kts 292°
2026-05-07 23:53 33.93866 -118.40765 126 ft 17 kts 322°
2026-05-07 23:54 33.93949 -118.40818 126 ft 11 kts 352°
2026-05-07 23:54 33.94028 -118.40828 126 ft 11 kts 353°
2026-05-07 23:54 33.94060 -118.40791 124 ft 6 kts 142°
2026-05-07 23:54 33.94053 -118.40778 124 ft 0 kts 105°
2026-05-07 23:55 33.94049 -118.40759 124 ft 3 kts 100°
2026-05-07 23:55 33.94047 -118.40748 124 ft 2 kts 101°
2026-05-07 23:55 33.94047 -118.40747 124 ft 0 kts 101°